Date String (YYYY-MM-DD hh:mm:ss) UTC,Instrument flags,absolute air pressure of the measurement (hPa),sample flow rate (lpm),inlet stack bypass flow (lpm),air temperature of the measurement (°C),ambient temperature measured by the external sensor (°C),aerosol sample conditioner tube jacket temperature (°C),OPC LED temperature (°C),internal box temperature (°C),relative humidity of the measurement (%),span deviation,mass concentration of particles derived from Lorenz-Mie calculation of OPC scattering (μg/m³),mass concentration of particles derived from Lorenz-Mie calculation of OPC scattering (μg/m³),mass concentration of particles derived from Lorenz-Mie calculation of OPC scattering (μg/m³)
DateTimeUTC,F1_M11,P_M11,Q1_M11,Q2_M11,T1_M11,T2_M11,T3_M11,T4_M11,T5_M11,U1_M11,ZSPAN_M11,X0_M11,X2_M11,X1_M11
2023-07-12 15:00:00,SystemResetWarning,0832.7,4.99,000.00,029.2,026.8,000.0,037.7,030.7,23.7,0000.0,0012.18,0004.57,0003.70
2023-07-12 15:01:00,SystemResetWarning,0832.7,5.00,000.00,029.3,027.1,000.0,037.7,030.8,23.9,0000.0,0011.69,0004.58,0003.70
2023-07-12 15:02:00,SystemResetWarning,0832.7,5.00,000.00,029.3,027.4,000.0,037.7,030.9,24.5,0000.0,0011.73,0004.59,0003.69
2023-07-12 15:03:00,SystemResetWarning,0832.8,5.00,000.00,029.3,027.6,000.0,037.7,030.9,24.4,0000.0,0011.84,0004.61,0003.68
2023-07-12 15:04:00,SystemResetWarning,0832.7,5.00,000.00,029.3,027.8,000.0,037.8,031.0,27.7,0000.0,0011.84,0004.62,0003.68
2023-07-12 15:05:00,SystemResetWarning,0832.7,5.00,000.00,029.4,028.0,000.0,037.8,031.1,29.2,0000.0,0010.60,0004.58,0003.67
2023-07-12 15:06:00,SystemResetWarning,0832.8,5.00,000.00,029.4,028.2,000.0,037.8,031.1,32.1,0000.0,0011.08,0004.56,0003.68
2023-07-12 15:07:00,SystemResetWarning,0832.8,4.98,000.00,029.4,027.3,000.0,037.7,031.1,32.2,0000.0,0012.07,0004.57,0003.69
2023-07-12 15:08:00,SystemResetWarning,0832.7,5.01,000.00,029.4,025.7,000.0,037.6,030.8,31.6,0000.0,0013.02,0004.64,0003.71
2023-07-12 15:09:00,SystemResetWarning,0832.7,5.01,000.00,029.3,025.5,000.0,037.5,030.7,30.7,0000.0,0012.99,0004.67,0003.75
2023-07-12 15:10:00,SystemResetWarning,0832.7,5.00,000.00,029.2,025.8,000.0,037.6,030.6,29.7,0000.0,0013.58,0004.73,0003.76
2023-07-12 15:11:00,SystemResetWarning,0832.8,5.00,000.00,029.2,026.2,000.0,037.6,030.6,28.6,0000.0,0014.21,0004.74,0003.77
2023-07-12 15:12:00,SystemResetWarning,0832.8,4.99,000.00,029.2,026.6,000.0,037.7,030.7,27.0,0000.0,0014.39,0004.78,0003.79
2023-07-12 15:13:00,SystemResetWarning,0832.8,5.00,000.00,029.2,027.0,000.0,037.7,030.8,28.3,0000.0,0015.15,0004.84,0003.81
2023-07-12 15:14:00,SystemResetWarning,0832.8,5.00,000.00,029.2,027.3,000.0,037.7,030.8,26.7,0000.0,0015.49,0004.83,0003.82
2023-07-12 15:15:00,SystemResetWarning,0832.9,5.00,000.00,029.3,027.5,000.0,037.7,030.9,26.4,0000.0,0015.89,0004.89,0003.83
2023-07-12 15:16:00,SystemResetWarning,0832.8,5.00,000.00,029.3,027.8,000.0,037.7,031.0,27.5,0000.0,0016.03,0004.97,0003.85
2023-07-12 15:17:00,SystemResetWarning,0833.1,5.00,000.00,029.3,027.9,000.0,037.7,031.0,27.5,0000.0,0015.47,0005.01,0003.86
2023-07-12 15:18:00,SystemResetWarning,0833.4,4.98,000.00,029.4,028.0,000.0,037.8,031.1,28.5,0000.0,0014.81,0005.05,0003.87
2023-07-12 15:19:00,SystemResetWarning,0833.3,5.01,000.00,029.4,026.7,000.0,037.6,030.9,28.6,0000.0,0014.28,0005.04,0003.89
2023-07-12 15:20:00,SystemResetWarning,0833.3,4.99,000.00,029.3,025.3,000.0,037.5,030.7,28.9,0000.0,0014.91,0005.06,0003.91
2023-07-12 15:21:00,SystemResetWarning,0833.1,5.01,000.00,029.2,025.4,000.0,037.5,030.6,29.5,0000.0,0014.84,0005.09,0003.93
2023-07-12 15:22:00,SystemResetWarning,0833.1,5.02,000.00,029.2,025.8,000.0,037.5,030.5,30.7,0000.0,0014.38,0005.17,0003.95
2023-07-12 15:23:00,SystemResetWarning,0833.2,5.00,000.00,029.1,026.2,000.0,037.6,030.5,30.7,0000.0,0014.31,0005.19,0003.97
2023-07-12 15:24:00,SystemResetWarning,0833.3,5.00,000.00,029.1,026.6,000.0,037.6,030.6,30.1,0000.0,0014.33,0005.21,0003.99
2023-07-12 15:25:00,SystemResetWarning,0833.3,5.00,000.00,029.1,027.0,000.0,037.6,030.7,30.9,0000.0,0014.38,0005.26,0004.03
2023-07-12 15:26:00,SystemResetWarning,0833.4,5.00,000.00,029.2,027.3,000.0,037.6,030.8,29.9,0000.0,0014.14,0005.27,0004.06
2023-07-12 15:27:00,SystemResetWarning,0833.3,5.00,000.00,029.2,027.5,000.0,037.6,030.8,30.3,0000.0,0014.05,0005.30,0004.10
2023-07-12 15:28:00,SystemResetWarning,0832.9,5.01,000.00,029.2,027.8,000.0,037.7,030.9,30.8,0000.0,0015.55,0005.41,0004.15
2023-07-12 15:29:00,SystemResetWarning,0833.2,5.00,000.00,029.3,028.0,000.0,037.7,031.0,31.6,0000.0,0016.28,0005.47,0004.20
2023-07-12 15:30:00,SystemResetWarning,0833.0,4.99,000.00,029.3,027.8,000.0,037.7,031.0,31.8,0000.0,0016.56,0005.56,0004.23
2023-07-12 15:31:00,SystemResetWarning,0833.1,4.99,000.00,029.3,026.3,000.0,037.6,030.7,31.4,0000.0,0016.88,0005.64,0004.27
2023-07-12 15:32:00,SystemResetWarning,0833.3,5.00,000.00,029.2,025.2,000.0,037.5,030.5,32.8,0000.0,0018.71,0005.71,0004.31
2023-07-12 15:33:00,SystemResetWarning,0833.0,5.01,000.00,029.1,025.4,000.0,037.4,030.4,31.8,0000.0,0019.07,0005.76,0004.34
2023-07-12 15:34:00,SystemResetWarning,0832.9,5.01,000.00,029.1,025.8,000.0,037.5,030.4,31.7,0000.0,0019.53,0005.85,0004.38
2023-07-12 15:35:00,SystemResetWarning,0833.0,4.99,000.00,029.1,026.2,000.0,037.5,030.5,31.6,0000.0,0019.69,0005.90,0004.42
2023-07-12 15:36:00,SystemResetWarning,0832.9,5.01,000.00,029.1,026.6,000.0,037.5,030.6,31.3,0000.0,0022.08,0005.96,0004.45
2023-07-12 15:37:00,SystemResetWarning,0833.3,5.00,000.00,029.1,027.0,000.0,037.6,030.7,31.2,0000.0,0023.33,0006.05,0004.49
2023-07-12 15:38:00,SystemResetWarning,0833.3,5.00,000.00,029.1,027.3,000.0,037.6,030.7,31.9,0000.0,0023.72,0006.14,0004.51
2023-07-12 15:39:00,SystemResetWarning,0833.0,5.01,000.00,029.1,027.5,000.0,037.6,030.8,30.8,0000.0,0022.87,0006.24,0004.54
2023-07-12 15:40:00,SystemResetWarning,0833.1,4.99,000.00,029.2,027.8,000.0,037.6,030.9,29.5,0000.0,0024.16,0006.30,0004.55
2023-07-12 15:41:00,SystemResetWarning,0833.1,4.99,000.00,029.2,027.8,000.0,037.6,030.9,29.3,0000.0,0024.91,0006.44,0004.58
2023-07-12 15:42:00,SystemResetWarning,0833.4,5.00,000.00,029.2,026.6,000.0,037.5,030.8,28.8,0000.0,0025.16,0006.50,0004.61
2023-07-12 15:43:00,SystemResetWarning,0833.3,5.01,000.00,029.2,025.3,000.0,037.4,030.5,29.2,0000.0,0025.31,0006.53,0004.62
2023-07-12 15:44:00,SystemResetWarning,0833.4,5.01,000.00,029.1,025.4,000.0,037.3,030.4,29.2,-000.2,0025.79,0006.55,0004.64
2023-07-12 15:45:00,SystemResetWarning,0833.5,5.00,000.00,029.0,025.7,000.0,037.4,030.3,29.2,0000.0,0025.95,0006.60,0004.67
2023-07-12 15:46:00,SystemResetWarning,0833.4,5.00,000.00,029.0,026.1,000.0,037.4,030.4,29.1,0000.0,0026.10,0006.64,0004.68
2023-07-12 15:47:00,SystemResetWarning,0833.1,5.00,000.00,029.0,026.5,000.0,037.5,030.5,29.8,0000.0,0024.32,0006.69,0004.67
2023-07-12 15:48:00,SystemResetWarning,0832.9,5.00,000.00,029.0,026.9,000.0,037.5,030.6,29.1,0000.0,0023.89,0006.67,0004.66
2023-07-12 15:49:00,SystemResetWarning,0833.0,5.00,000.00,029.1,027.2,000.0,037.5,030.7,28.7,0000.0,0025.06,0006.66,0004.66
2023-07-12 15:50:00,SystemResetWarning,0832.9,5.00,000.00,029.1,027.5,000.0,037.5,030.8,28.9,0000.0,0025.45,0006.61,0004.63
2023-07-12 15:51:00,SystemResetWarning,0832.8,5.00,000.00,029.1,027.7,000.0,037.6,030.8,28.5,0000.0,0024.53,0006.54,0004.62
2023-07-12 15:52:00,SystemResetWarning,0833.1,4.99,000.00,029.2,027.9,000.0,037.6,030.9,28.5,0000.0,0024.19,0006.43,0004.58
2023-07-12 15:53:00,SystemResetWarning,0833.2,4.99,000.00,029.2,026.8,000.0,037.5,030.8,27.9,0000.0,0023.72,0006.41,0004.55
2023-07-12 15:54:00,SystemResetWarning,0832.8,5.00,000.00,029.1,025.4,000.0,037.4,030.6,27.5,0000.0,0023.06,0006.36,0004.52
2023-07-12 15:55:00,SystemResetWarning,0832.9,5.01,000.00,029.1,025.2,000.0,037.3,030.5,28.3,0000.0,0022.31,0006.37,0004.49
2023-07-12 15:56:00,SystemResetWarning,0832.8,5.01,000.00,029.0,025.5,000.0,037.3,030.3,27.5,0000.0,0022.36,0006.33,0004.45
2023-07-12 15:57:00,SystemResetWarning,0832.8,5.00,000.00,029.0,026.0,000.0,037.4,030.4,28.1,0000.0,0022.83,0006.27,0004.42
2023-07-12 15:58:00,SystemResetWarning,0832.8,5.00,000.00,029.0,026.4,000.0,037.4,030.5,26.7,0000.0,0023.71,0006.29,0004.42
2023-07-12 15:59:00,SystemResetWarning,0832.9,5.00,000.00,029.0,026.8,000.0,037.4,030.5,27.4,0000.0,0024.78,0006.42,0004.41
